When you browse on this site, cookies collect data to enhance your experience and personalize the content and advertising you see.
Visit our Privacy Policy to learn more. By continuing to use the site, you agree to this use of cookies and data.
EN

Hourly Weather Montebello

Today, 14 August, Friday

Time Temperature Precipitation Wind Pressure Humidity
00:00 +29°C° 0 mm 1 mps 752 mmHg 44%
01:00 +29°C° 0 mm 1 mps 752 mmHg 46%
02:00 +28°C° 0 mm 1 mps 752 mmHg 47%
03:00 +28°C° 0 mm 1 mps 752 mmHg 47%
04:00 +28°C° 0 mm 1 mps 752 mmHg 48%
05:00 +29°C° 0 mm 1 mps 752 mmHg 46%
06:00 +29°C° 0 mm 1 mps 753 mmHg 44%
07:00 +30°C° 0 mm 1 mps 753 mmHg 43%
08:00 +31°C° 0 mm 1 mps 753 mmHg 39%
09:00 +34°C° 0 mm 2 mps 753 mmHg 36%
10:00 +35°C° 0 mm 2 mps 753 mmHg 33%
11:00 +36°C° 0 mm 3 mps 753 mmHg 31%
12:00 +37°C° 0 mm 3 mps 753 mmHg 29%
13:00 +38°C° 0 mm 3 mps 752 mmHg 28%
14:00 +38°C° 0 mm 4 mps 752 mmHg 28%
15:00 +38°C° 0 mm 4 mps 752 mmHg 29%
16:00 +38°C° 0 mm 4 mps 751 mmHg 29%
17:00 +37°C° 0 mm 3 mps 751 mmHg 32%
18:00 +35°C° 0 mm 3 mps 751 mmHg 34%
19:00 +34°C° 0 mm 2 mps 751 mmHg 37%
20:00 +34°C° 0 mm 2 mps 752 mmHg 38%
21:00 +32°C° 0 mm 1 mps 752 mmHg 39%
22:00 +32°C° 0 mm 1 mps 752 mmHg 40%
23:00 +31°C° 0 mm 1 mps 752 mmHg 41%

Tomorrow, 15 August, Saturday

Time Temperature Precipitation Wind Pressure Humidity
00:00 +31°C° 0 mm 1 mps 751 mmHg 41%
01:00 +31°C° 0 mm 1 mps 751 mmHg 41%
02:00 +31°C° 0.1 mm 1 mps 751 mmHg 42%
03:00 +31°C° 0.1 mm 2 mps 751 mmHg 42%
04:00 +31°C° 0.1 mm 2 mps 751 mmHg 43%
05:00 +31°C° 0.1 mm 1 mps 751 mmHg 41%
06:00 +32°C° 0.1 mm 1 mps 752 mmHg 40%
07:00 +30°C° 0.1 mm 0 mps 752 mmHg 39%
08:00 +34°C° 0.1 mm 1 mps 752 mmHg 36%
09:00 +36°C° 0.1 mm 1 mps 752 mmHg 32%
10:00 +38°C° 0.1 mm 2 mps 752 mmHg 29%
11:00 +38°C° 0 mm 2 mps 752 mmHg 29%
12:00 +39°C° 0 mm 3 mps 752 mmHg 29%
13:00 +39°C° 0 mm 3 mps 751 mmHg 28%
14:00 +39°C° 0 mm 3 mps 751 mmHg 29%
15:00 +38°C° 0 mm 3 mps 751 mmHg 30%
16:00 +38°C° 0 mm 4 mps 750 mmHg 30%
17:00 +36°C° 0 mm 3 mps 751 mmHg 34%
18:00 +35°C° 0 mm 3 mps 751 mmHg 38%
19:00 +32°C° 0 mm 2 mps 751 mmHg 43%
20:00 +31°C° 0 mm 2 mps 752 mmHg 45%
21:00 +31°C° 0 mm 2 mps 752 mmHg 47%
22:00 +30°C° 0 mm 2 mps 752 mmHg 49%
23:00 +30°C° 0.1 mm 2 mps 752 mmHg 51%

Day after tomorrow, 16 August, Sunday

Time Temperature Precipitation Wind Pressure Humidity
00:00 +29°C° 0.1 mm 2 mps 752 mmHg 54%
01:00 +29°C° 0.1 mm 2 mps 752 mmHg 56%
02:00 +28°C° 0.1 mm 2 mps 752 mmHg 56%
03:00 +28°C° 0.1 mm 2 mps 752 mmHg 57%
04:00 +28°C° 0.1 mm 1 mps 752 mmHg 58%
05:00 +28°C° 0 mm 1 mps 752 mmHg 57%
06:00 +29°C° 0 mm 1 mps 753 mmHg 56%
07:00 +29°C° 0 mm 1 mps 753 mmHg 56%
08:00 +30°C° 0 mm 2 mps 753 mmHg 52%
09:00 +32°C° 0 mm 2 mps 753 mmHg 48%
10:00 +34°C° 0 mm 3 mps 753 mmHg 44%
11:00 +35°C° 0 mm 3 mps 753 mmHg 42%
12:00 +35°C° 0 mm 3 mps 753 mmHg 40%
13:00 +36°C° 0 mm 3 mps 753 mmHg 39%
14:00 +36°C° 0 mm 3 mps 752 mmHg 40%
15:00 +35°C° 0 mm 4 mps 752 mmHg 40%
16:00 +35°C° 0 mm 4 mps 751 mmHg 41%
17:00 +34°C° 0 mm 3 mps 752 mmHg 46%
18:00 +31°C° 0 mm 2 mps 752 mmHg 51%
19:00 +29°C° 0 mm 2 mps 753 mmHg 55%
20:00 +29°C° 0 mm 2 mps 753 mmHg 55%
21:00 +29°C° 0 mm 2 mps 753 mmHg 55%
22:00 +29°C° 0 mm 2 mps 753 mmHg 54%
23:00 +29°C° 0 mm 2 mps 753 mmHg 56%

17 August, Monday

Time Temperature Precipitation Wind Pressure Humidity
00:00 +28°C° 0 mm 1 mps 753 mmHg 57%
01:00 +28°C° 0 mm 1 mps 753 mmHg 58%
02:00 +28°C° 0 mm 1 mps 753 mmHg 58%
03:00 +28°C° 0 mm 1 mps 753 mmHg 58%
04:00 +26°C° 0 mm 0 mps 753 mmHg 58%
05:00 +26°C° 0 mm 0 mps 753 mmHg 56%
06:00 +27°C° 0 mm 0 mps 753 mmHg 53%
07:00 +28°C° 0 mm 0 mps 753 mmHg 51%
08:00 +31°C° 0 mm 1 mps 753 mmHg 47%
09:00 +34°C° 0 mm 2 mps 753 mmHg 42%
10:00 +36°C° 0 mm 2 mps 753 mmHg 38%
11:00 +36°C° 0 mm 3 mps 753 mmHg 36%
12:00 +37°C° 0 mm 3 mps 753 mmHg 35%
13:00 +38°C° 0 mm 3 mps 752 mmHg 33%
14:00 +37°C° 0 mm 3 mps 752 mmHg 34%
15:00 +37°C° 0 mm 4 mps 752 mmHg 35%
16:00 +37°C° 0 mm 4 mps 751 mmHg 36%
17:00 +35°C° 0 mm 3 mps 752 mmHg 40%
18:00 +34°C° 0 mm 3 mps 752 mmHg 44%
19:00 +31°C° 0 mm 2 mps 752 mmHg 48%
20:00 +31°C° 0.1 mm 2 mps 752 mmHg 49%
21:00 +30°C° 0.1 mm 2 mps 753 mmHg 50%
22:00 +30°C° 0.1 mm 1 mps 753 mmHg 51%
23:00 +30°C° 0 mm 1 mps 753 mmHg 51%

18 August, Tuesday

Time Temperature Precipitation Wind Pressure Humidity
00:00 +30°C° 0 mm 1 mps 753 mmHg 51%
01:00 +29°C° 0 mm 1 mps 753 mmHg 51%
02:00 +30°C° 0 mm 1 mps 753 mmHg 51%
03:00 +30°C° 0 mm 1 mps 752 mmHg 50%
04:00 +30°C° 0 mm 1 mps 752 mmHg 49%
05:00 +30°C° 0 mm 1 mps 753 mmHg 48%
06:00 +31°C° 0 mm 1 mps 753 mmHg 47%
07:00 +31°C° 0 mm 1 mps 753 mmHg 46%
08:00 +33°C° 0 mm 1 mps 753 mmHg 42%
09:00 +36°C° 0 mm 2 mps 753 mmHg 38%
10:00 +37°C° 0 mm 2 mps 753 mmHg 34%
11:00 +38°C° 0 mm 3 mps 752 mmHg 31%
12:00 +39°C° 0 mm 3 mps 752 mmHg 29%
13:00 +40°C° 0 mm 3 mps 751 mmHg 27%
14:00 +40°C° 0 mm 3 mps 751 mmHg 28%
15:00 +40°C° 0 mm 3 mps 751 mmHg 28%
16:00 +39°C° 0 mm 3 mps 750 mmHg 29%
17:00 +38°C° 0.1 mm 3 mps 750 mmHg 32%
18:00 +36°C° 0.1 mm 2 mps 750 mmHg 36%
19:00 +33°C° 0.1 mm 1 mps 750 mmHg 39%
20:00 +33°C° 0 mm 1 mps 750 mmHg 39%
21:00 +33°C° 0 mm 1 mps 751 mmHg 39%
22:00 +34°C° 0 mm 2 mps 751 mmHg 39%
23:00 +32°C° 0 mm 1 mps 750 mmHg 40%

19 August, Wednesday

Time Temperature Precipitation Wind Pressure Humidity
00:00 +32°C° 0 mm 1 mps 750 mmHg 42%
01:00 +31°C° 0 mm 1 mps 750 mmHg 43%
02:00 +31°C° 0 mm 1 mps 750 mmHg 44%
03:00 +30°C° 0 mm 1 mps 750 mmHg 45%
04:00 +30°C° 0 mm 1 mps 750 mmHg 45%
05:00 +31°C° 0 mm 1 mps 750 mmHg 44%
06:00 +31°C° 0 mm 1 mps 750 mmHg 42%
07:00 +32°C° 0 mm 1 mps 750 mmHg 41%
08:00 +34°C° 0 mm 1 mps 750 mmHg 37%
09:00 +36°C° 0 mm 1 mps 750 mmHg 33%
10:00 +39°C° 0 mm 1 mps 750 mmHg 29%
11:00 +40°C° 0 mm 2 mps 749 mmHg 27%
12:00 +42°C° 0 mm 3 mps 749 mmHg 25%
13:00 +43°C° 0 mm 4 mps 748 mmHg 23%
14:00 +42°C° 0 mm 4 mps 748 mmHg 25%
15:00 +41°C° 0 mm 4 mps 747 mmHg 26%
16:00 +40°C° 0 mm 4 mps 747 mmHg 27%
17:00 +37°C° 0.2 mm 3 mps 747 mmHg 32%
18:00 +35°C° 0.2 mm 2 mps 747 mmHg 37%
19:00 +32°C° 0.2 mm 2 mps 748 mmHg 43%
20:00 +32°C° 0.1 mm 2 mps 748 mmHg 44%
21:00 +31°C° 0.1 mm 2 mps 748 mmHg 45%
22:00 +31°C° 0.1 mm 2 mps 749 mmHg 45%
23:00 +31°C° 0.1 mm 1 mps 749 mmHg 46%
Show more